Good Hope, IL

4:03 PM CST on December 06, 2016 (GMT -0600)
Macomb Municipal

Weather History for KMQB - December, 2012

Change the Weather History Date:

Thursday, December 20, 2012

  Actual Average (KBRL) Record (KBRL)
Temperature  
Mean Temperature 32 °F 28 °F  
Max Temperature 44 °F 36 °F 62 °F (1949)
Min Temperature 19 °F 20 °F -14 °F (1901)
Degree Days  
Heating Degree Days 33 37  
Month to date heating degree days 690  
Since 1 July heating degree days 1763  
Cooling Degree Days 0 0  
Month to date cooling degree days 0  
Year to date cooling degree days 1207  
Moisture  
Dew Point 33 °F    
Average Humidity 99    
Maximum Humidity 100    
Minimum Humidity 93    
Precipitation  
Precipitation 0.37 in 0.07 in 0.99 in (1957)
Month to date precipitation 1.45  
Year to date precipitation 37.84  
Sea Level Pressure  
Sea Level Pressure 29.46 in    
Wind  
Wind Speed 21 mph (NNW)    
Max Wind Speed 44 mph    
Max Gust Speed 54 mph    
Visibility 2 miles    
Events Fog , Rain , Snow    
T = Trace of Precipitation, MM = Missing Value Source: NWS Daily Summary

Daily Weather History Graph

Daily Weather History Graph

Search for Another Location

Airport or City:

Trip Planner

Search our weather history database for the weather conditions in past years. The results will help you decide how hot, cold, wet, or windy it might be!

Date:

Astronomy

Dec. 20, 2012 Rise Set
Actual Time 7:22 AM CST 4:38 PM CST
Civil Twilight 6:51 AM CST 5:09 PM CST
Nautical Twilight 6:17 AM CST 5:44 PM CST
Astronomical Twilight 5:43 AM CST 6:17 PM CST
Moon 11:58 AM CST (12/20) 12:08 AM CST (12/20)
Length of Visible Light 10h 18m
Length of Day
9h 16m
First Quarter, 55% of the Moon is Illuminated
Dec 20
First Quarter
Dec 28
Full
Jan 4
Last Quarter
Jan 11
New
Jan 18
First Quarter

Hourly Weather History & Observations

Time (CST) Temp. Windchill Dew Point Humidity Pressure Visibility Wind Dir Wind Speed Gust Speed Precip Events Conditions
12:15 AM 39.7 °F 31.9 °F 39.7 °F 100% 29.54 in 4.0 mi ESE 13.8 mph - N/A   Overcast
12:35 AM 40.1 °F 32.7 °F 40.1 °F 100% 29.52 in 4.0 mi East 12.7 mph - N/A   Overcast
12:55 AM 40.1 °F 34.1 °F 40.1 °F 100% 29.53 in 3.0 mi NE 9.2 mph - N/A   Overcast
1:15 AM 40.3 °F 34.4 °F 40.3 °F 100% 29.51 in 4.0 mi ENE 9.2 mph - N/A   Overcast
1:35 AM 40.5 °F 34.1 °F 40.5 °F 100% 29.50 in 4.0 mi ENE 10.4 mph - N/A Rain Light Rain
1:55 AM 40.8 °F 34.1 °F 40.8 °F 100% 29.47 in 4.0 mi ENE 11.5 mph - N/A   Overcast
2:15 AM 41.0 °F 33.9 °F 41.0 °F 100% 29.46 in 3.0 mi East 12.7 mph - N/A   Overcast
2:35 AM 41.0 °F 33.9 °F 41.0 °F 100% 29.44 in 3.0 mi East 12.7 mph - N/A   Overcast
2:55 AM 41.4 °F 33.6 °F 41.4 °F 100% 29.41 in 3.0 mi East 15.0 mph - N/A   Overcast
3:15 AM 41.5 °F 34.6 °F 41.5 °F 100% 29.38 in 3.0 mi East 12.7 mph - N/A   Overcast
3:35 AM 42.3 °F 35.9 °F 42.3 °F 100% 29.35 in 3.0 mi ENE 11.5 mph - N/A   Overcast
3:55 AM 42.8 °F 37.5 °F 42.8 °F 100% 29.35 in 3.0 mi NE 9.2 mph - N/A   Overcast
4:15 AM 43.0 °F 36.4 °F 43.0 °F 100% 29.31 in 3.0 mi ENE 12.7 mph - N/A   Overcast
4:35 AM 43.2 °F 38.4 °F 43.2 °F 100% 29.30 in 3.0 mi ENE 8.1 mph - N/A   Overcast
4:55 AM 43.2 °F 39.0 °F 43.2 °F 100% 29.28 in 2.5 mi NE 6.9 mph - N/A   Overcast
5:15 AM 43.5 °F 39.4 °F 43.5 °F 100% 29.27 in 2.0 mi NE 6.9 mph - N/A   Overcast
5:35 AM 42.8 °F 38.6 °F 42.8 °F 100% 29.26 in 1.8 mi NNE 6.9 mph - N/A   Overcast
5:55 AM 42.8 °F 37.5 °F 42.8 °F 100% 29.25 in 1.8 mi NE 9.2 mph - N/A   Overcast
6:15 AM 43.3 °F 38.1 °F 43.3 °F 100% 29.24 in 1.5 mi NNE 9.2 mph - N/A   Overcast
6:35 AM 43.3 °F 38.1 °F 43.3 °F 100% 29.23 in 1.0 mi NE 9.2 mph - N/A   Overcast
6:55 AM 43.2 °F 37.0 °F 43.2 °F 100% 29.20 in 0.5 mi NE 11.5 mph - N/A Rain Light Rain
7:15 AM 43.7 °F 38.6 °F 43.7 °F 100% 29.19 in 0.5 mi NE 9.2 mph - N/A Fog Fog
7:35 AM 44.1 °F 39.0 °F 44.1 °F 100% 29.18 in 0.8 mi NNE 9.2 mph - 0.04 in Rain Light Rain
7:55 AM 43.9 °F 37.2 °F 43.9 °F 100% 29.18 in 1.0 mi NNW 13.8 mph - 0.09 in Rain Heavy Rain
8:15 AM 40.8 °F 30.9 °F 40.8 °F 100% 29.16 in 2.5 mi NNW 23.0 mph 31.1 mph 0.03 in Rain Light Rain
8:35 AM 40.1 °F 30.7 °F 40.1 °F 100% 29.15 in 4.0 mi North 19.6 mph 28.8 mph 0.05 in Rain Light Rain
8:55 AM 39.6 °F 29.2 °F 39.6 °F 100% 29.16 in 1.5 mi NNW 23.0 mph 33.4 mph 0.10 in Rain Light Rain
9:15 AM 36.7 °F 24.2 °F 36.7 °F 100% 29.16 in 3.0 mi NNW 28.8 mph 34.5 mph 0.03 in Rain Rain
9:35 AM 35.6 °F 23.7 °F 35.6 °F 100% 29.19 in 2.5 mi NNW 24.2 mph 32.2 mph 0.09 in Rain Rain
9:55 AM 34.9 °F 22.7 °F 34.9 °F 100% 29.19 in 7.0 mi NNW 24.2 mph 29.9 mph 0.11 in Rain Light Rain
10:15 AM 34.7 °F 21.5 °F 34.7 °F 100% 29.19 in 7.0 mi NNW 28.8 mph 36.8 mph 0.01 in Rain Light Rain
10:35 AM 33.8 °F 20.1 °F 33.8 °F 100% 29.20 in 5.0 mi NW 29.9 mph 44.9 mph 0.03 in Rain Light Rain
10:55 AM 33.8 °F 21.9 °F 33.8 °F 100% 29.22 in 10.0 mi NW 21.9 mph 31.1 mph N/A Rain Light Rain
11:15 AM 32.0 °F 18.6 °F 32.0 °F 100% 29.22 in 0.2 mi NW 25.3 mph 36.8 mph 0.01 in Snow Snow
11:35 AM 32.0 °F 16.7 °F 32.0 °F 100% 29.22 in 0.2 mi NW 34.5 mph 40.3 mph N/A Snow Heavy Snow
11:55 AM 31.6 °F 16.3 °F 31.6 °F 100% 29.23 in 0.2 mi NW 34.5 mph 42.6 mph 0.01 in Snow Heavy Snow
12:15 PM 31.6 °F 17.1 °F 31.6 °F 100% 29.25 in 0.2 mi NW 29.9 mph 46.0 mph N/A Snow Heavy Snow
12:35 PM 31.5 °F 15.8 °F 31.5 °F 100% 29.25 in 0.2 mi NW 35.7 mph 48.3 mph 0.01 in Snow Heavy Snow
12:55 PM 31.5 °F 15.6 °F 31.5 °F 100% 29.27 in 0.2 mi NW 36.8 mph 49.5 mph 0.01 in Snow Heavy Snow
1:15 PM 31.5 °F 15.2 °F 31.5 °F 100% 29.29 in 0.2 mi NW 39.1 mph 50.6 mph N/A Snow Heavy Snow
1:35 PM 30.0 °F 12.6 °F 30.0 °F 100% 29.31 in 0.2 mi NW 42.6 mph 48.3 mph N/A Snow Heavy Snow
1:55 PM 29.7 °F 12.3 °F 29.7 °F 100% 29.33 in 0.2 mi NW 41.4 mph 49.5 mph N/A Snow Heavy Snow
2:15 PM 29.3 °F 11.8 °F 29.3 °F 100% 29.37 in 0.2 mi NW 41.4 mph 51.8 mph N/A Snow Heavy Snow
2:35 PM 29.3 °F 12.0 °F 29.3 °F 100% 29.40 in 0.2 mi NW 40.3 mph 50.6 mph N/A Snow Heavy Snow
2:55 PM 30.2 °F 12.9 °F 30.2 °F 100% 29.42 in 0.2 mi WNW 42.6 mph 52.9 mph N/A Snow Heavy Snow
3:15 PM 28.8 °F 10.7 °F 28.8 °F 100% 29.45 in 0.2 mi WNW 43.7 mph 50.6 mph N/A Snow Snow
3:35 PM 28.0 °F 9.9 °F 28.0 °F 100% 29.49 in 0.2 mi WNW 42.6 mph 54.1 mph N/A Snow Snow
3:55 PM 27.5 °F 9.3 °F 27.5 °F 100% 29.51 in 0.2 mi WNW 41.4 mph 51.8 mph N/A Snow Snow
4:15 PM 27.1 °F 8.6 °F 27.1 °F 100% 29.54 in 0.2 mi WNW 42.6 mph 51.8 mph N/A Snow Snow
4:35 PM 27.0 °F 8.4 °F 27.0 °F 100% 29.57 in 0.5 mi WNW 42.6 mph 48.3 mph N/A Snow Snow
4:55 PM 27.0 °F 8.4 °F 27.0 °F 100% 29.59 in 0.2 mi WNW 42.6 mph 49.5 mph N/A Snow Snow
5:15 PM 27.1 °F 8.4 °F 27.1 °F 100% 29.62 in 0.8 mi WNW 43.7 mph 48.3 mph N/A Snow Snow
5:35 PM 27.0 °F 8.2 °F 27.0 °F 100% 29.64 in 0.5 mi WNW 43.7 mph 51.8 mph N/A Snow Snow
5:55 PM 26.6 °F 8.1 °F 26.6 °F 100% 29.66 in 0.8 mi WNW 41.4 mph 54.1 mph N/A Snow Light Snow
6:15 PM 25.7 °F 7.4 °F 25.7 °F 100% 29.68 in 0.8 mi WNW 38.0 mph 49.5 mph N/A Snow Snow
6:35 PM 25.7 °F 7.0 °F 25.7 °F 100% 29.70 in 0.8 mi WNW 40.3 mph 50.6 mph N/A Snow Snow
6:55 PM 25.3 °F 6.5 °F 25.3 °F 100% 29.72 in 1.0 mi WNW 40.3 mph 47.2 mph 0.01 in Snow Light Snow
7:15 PM 24.1 °F 4.5 °F 24.1 °F 100% 29.74 in 1.2 mi WNW 41.4 mph 47.2 mph N/A Snow Light Snow
7:35 PM 23.5 °F 3.8 °F 23.5 °F 100% 29.76 in 2.0 mi WNW 41.4 mph 47.2 mph N/A Snow Light Snow
7:55 PM 23.0 °F 3.4 °F 22.8 °F 99% 29.77 in 1.5 mi WNW 39.1 mph 46.0 mph N/A Snow Light Snow
8:15 PM 22.5 °F 2.5 °F 22.1 °F 99% 29.78 in 2.0 mi WNW 40.3 mph 47.2 mph N/A Snow Light Snow
8:35 PM 23.0 °F 3.9 °F 23.0 °F 100% 29.79 in 2.0 mi WNW 36.8 mph 47.2 mph N/A Snow Light Snow
8:55 PM 21.9 °F 2.2 °F 21.7 °F 99% 29.80 in 2.0 mi WNW 38.0 mph 43.7 mph N/A Snow Light Snow
9:15 PM 21.6 °F 1.9 °F 21.2 °F 99% 29.81 in 1.8 mi WNW 36.8 mph 41.4 mph N/A Snow Light Snow
9:35 PM 21.2 °F 1.2 °F 20.8 °F 99% 29.83 in 3.0 mi WNW 38.0 mph 43.7 mph N/A Snow Light Snow
9:55 PM 21.2 °F 3.3 °F 20.8 °F 99% 29.83 in 4.0 mi WNW 28.8 mph 44.9 mph 0.01 in Snow Light Snow
10:15 PM 20.7 °F 1.2 °F 20.1 °F 98% 29.84 in 2.5 mi WNW 34.5 mph 43.7 mph N/A Snow Light Snow
10:35 PM 21.2 °F 4.2 °F 19.4 °F 93% 29.85 in 7.0 mi WNW 25.3 mph 36.8 mph N/A   Unknown
10:55 PM 21.2 °F 2.4 °F 19.4 °F 93% 29.85 in 4.0 mi WNW 32.2 mph 42.6 mph N/A Snow Light Snow
11:15 PM 20.1 °F 1.5 °F 19.2 °F 96% 29.86 in 2.5 mi WNW 29.9 mph 44.9 mph N/A Snow Light Snow
11:35 PM 20.3 °F 2.6 °F 19.0 °F 95% 29.88 in 10.0 mi WNW 26.5 mph - N/A   Unknown
11:55 PM 19.9 °F 2.5 °F 18.3 °F 93% 29.88 in 7.0 mi WNW 25.3 mph 35.7 mph N/A   Unknown